Tiempo atmosférico en la estación meteorológica de San Bartolome Tirajana, Lomo Pedro Alfonso, Las Palmas (806 m.)



Fecha
DESCASC
Temp. máxima en grados centígrados (hora)
DESCASC
Temp. mínima en grados centígrados (hora)
DESCASC
Temp. media en grados centígrados
DESCASC
Racha de viento máxima en m/sg (hora)
DESCASC
Velocidad máxima media en intervalos de 10 minutos(hora)
DESCASC
Precipitaciones diarias en mm
DESCASC
Precipitaciones de 00:00 a 06:00 en mm
DESCASC
Precipitaciones de 06:00 a 12:00 en mm
DESCASC
Precipitaciones de 12:00 a 18:00 en mm
DESCASC
Precipitaciones de 18:00 a 24:00 en mm
DESCASC
29-03-2020 17.5 (19:00) 9.4 (07:50) 13.4 7.22 (19:20) 3.89 (08:30) 0 0 0 0 0
28-03-2020 14.2 (13:50) 10 (03:20) 12.1 6.11 (01:20) 3.61 (05:20) 0 0 0 0 0
27-03-2020 18.5 (16:20) 8.6 (02:30) 13.6 10.28 (16:50) 5 (16:40) 1.8 0 0 0 1.8
26-03-2020 13.5 (11:40) 9.2 (00:00) 11.3 6.39 (11:40) 3.33 (11:50) 2.2 0 0 2.2 0
25-03-2020 15.1 (11:10) 10 (00:00) 12.6 9.44 (00:20) 5.56 (00:20) 0.4 0 0 0.4 0
24-03-2020 20.8 (15:00) 10.7 (00:00) 15.7 12.5 (09:10) 6.39 (17:10) 0.2 0 0.2 0 0
23-03-2020 14.8 (14:50) 8.2 (00:00) 11.5 23.61 (07:30) 13.61 (06:50) 2.6 0.6 1.8 0 0.2
22-03-2020 18.5 (12:40) 9.5 (01:30) 14 16.67 (22:10) 10.28 (22:40) 0 0 0 0 0
21-03-2020 18.9 (14:20) 9.4 (00:00) 14.1 9.72 (14:50) 5 (14:50) 0 0 0 0 0
20-03-2020 17.9 (11:20) 11.2 (00:00) 14.5 14.72 (01:10) 7.22 (01:10) 0 0 0 0 0
19-03-2020 21.1 (15:40) 11.5 (00:00) 16.3 15.83 (22:20) 9.72 (03:20) 0 0 0 0 0
18-03-2020 18 (15:10) 9.1 (00:00) 13.6 16.11 (22:20) 8.89 (22:20) 0 0 0 0 0
17-03-2020 17.6 (13:20) 9.4 (00:00) 13.5 8.61 (13:30) 4.17 (16:00) 0 0 0 0 0
16-03-2020 20.2 (14:20) 10.1 (00:00) 15.2 9.44 (18:20) 5 (15:00) 0 0 0 0 0
15-03-2020 19 (14:10) 9.5 (00:00) 14.3 12.22 (18:30) 6.94 (18:30) 0 0 0 0 0
14-03-2020 18.6 (16:30) 11 (00:00) 14.8 7.5 (16:10) 3.89 (16:20) 0 0 0 0 0
13-03-2020 23.4 (11:50) 16.4 (23:59) 19.9 5.83 (12:50) 3.33 (12:30) 0 0 0 0 0
12-03-2020 27.9 (16:20) 19.7 (00:00) 23.8 11.39 (05:50) 8.33 (05:50) 0 0 0 0 0
11-03-2020 27.7 (14:50) 19.5 (00:00) 23.6 8.61 (14:30) 5 (15:10) 0 0 0 0 0
10-03-2020 26 (15:10) 18.6 (00:00) 22.3 8.33 (00:10) 5.28 (00:10) 0 0 0 0 0
09-03-2020 26.2 (14:20) 18.2 (00:00) 22.2 11.67 (04:00) 6.67 (23:10) 0 0 0 0 0
08-03-2020 27 (15:50) 20.8 (00:00) 23.9 14.17 (11:50) 8.06 (11:10) 0 0 0 0 0
07-03-2020 23.1 (15:20) 9.8 (00:00) 16.5 6.39 (23:50) 4.17 (23:50) 0 0 0 0 0
06-03-2020 20.6 (13:40) 11.6 (00:00) 16.1 6.11 (15:00) 3.33 (15:40) 0 0 0 0 0
05-03-2020 23.6 (14:20) 14.4 (00:00) 19 6.11 (13:40) 4.17 (06:30) 0 0 0 0 0
04-03-2020 26.9 (16:00) 19.9 (00:00) 23.4 6.39 (14:00) 3.06 (05:40) 0 0 0 0 0
03-03-2020 23.8 (13:50) 14.3 (00:00) 19 4.72 (14:40) 2.5 (23:40) 0 0 0 0 0
02-03-2020 22.1 (14:50) 11.1 (00:00) 16.6 6.39 (16:30) 3.89 (02:10) 0 0 0 0 0
01-03-2020 23 (13:50) 13 (00:00) 18 6.11 (16:00) 3.33 (17:00) 0 0 0 0 0
29-02-2020 22.3 (15:20) 17.3 (00:00) 19.8 4.72 (16:40) 3.06 (22:40) 0 0 0 0 0

Gráficas

Temp. máximas Temp. mínimas Temp. medias Precipitaciones Rachas de viento máximas Velocidades máximas media en intervalos de 10 minutos

Datos horarios

Fecha y hora oficial Temperatura (ºC) Velocidad del viento (km/h) Dirección del viento Racha (km/h) Dirección de racha Precipitación (mm) Presión (hPa) Tendencia (hPa) Humedad (%)
2020-03-29 23:00:00 12.5 0 Calma 6 Oeste 0 -- -- 86
2020-03-29 22:00:00 13.1 2 Oeste 8 Sudoeste 0 -- -- 85
2020-03-29 21:00:00 13.3 5 Sur 13 Oeste 0 -- -- 84
2020-03-29 20:00:00 15.2 8 Oeste 26 Sudoeste 0 -- -- 75
2020-03-29 19:00:00 17.5 11 Oeste 24 Oeste 0 -- -- 66
2020-03-29 18:00:00 15.8 10 Oeste 21 Oeste 0 -- -- 68
2020-03-29 17:00:00 14 8 Oeste 15 Oeste 0 -- -- 79
2020-03-29 16:00:00 13.3 7 Oeste 20 Oeste 0 -- -- 84
2020-03-29 15:00:00 13.2 8 Sudoeste 19 Sudoeste 0 -- -- 84
2020-03-29 14:00:00 13.7 9 Sudoeste 18 Sudoeste 0 -- -- 82
2020-03-29 13:00:00 14.8 8 Sudoeste 19 Sudoeste 0 -- -- 78
2020-03-29 12:00:00 13.7 9 Sudoeste 17 Sudoeste 0 -- -- 81
2020-03-29 11:00:00 13.2 8 Sur 13 Sur 0 -- -- 81
2020-03-29 10:00:00 11.3 4 Este 12 Este 0 -- -- 88
2020-03-29 09:00:00 10.1 10 Este 15 Nordeste 0 -- -- 87
2020-03-29 08:00:00 9.5 10 Este 12 Este 0 -- -- 86
2020-03-29 07:00:00 9.7 5 Nordeste 8 Nordeste 0 -- -- 77
2020-03-29 06:00:00 10.2 0 Calma 6 Nordeste 0 -- -- 79
2020-03-29 05:00:00 9.9 4 Nordeste 7 Nordeste 0 -- -- 79
2020-03-29 04:00:00 10 3 Nordeste 5 Nordeste 0 -- -- 93
2020-03-29 00:00:00 10.6 0 Calma 14 Este 0 -- -- 92
2020-03-28 23:00:00 10.8 9 Este 13 Este 0 -- -- 94
2020-03-28 22:00:00 11 10 Este 14 Este 0 -- -- 92
2020-03-28 21:00:00 11.5 9 Este 13 Este 0 -- -- 91
2020-03-28 20:00:00 12.1 4 Este 13 Sudoeste 0 -- -- 89
2020-03-28 19:00:00 12.8 8 Sudoeste 15 Sudoeste 0 -- -- 87
2020-03-28 18:00:00 13.2 8 Sudoeste 16 Oeste 0 -- -- 85
2020-03-28 17:00:00 13.3 10 Oeste 18 Sudoeste 0 -- -- 84
2020-03-28 16:00:00 13.3 8 Oeste 18 Oeste 0 -- -- 84
2020-03-28 15:00:00 13.2 10 Oeste 21 Sudoeste 0 -- -- 82
2020-03-28 14:00:00 14.1 8 Oeste 22 Sudoeste 0 -- -- 82
2020-03-28 13:00:00 13.7 8 Sudoeste 19 Sudoeste 0 -- -- 85
2020-03-28 12:00:00 13.9 13 Sudoeste 22 Sur 0 -- -- 87
2020-03-28 11:00:00 12.9 10 Sur 15 Sur 0 -- -- 87
2020-03-28 10:00:00 12.5 6 Sur 12 Sur 0 -- -- 84
2020-03-28 09:00:00 11.1 4 Sur 7 Sur 0 -- -- 81
2020-03-28 08:00:00 10.8 4 Sudeste 18 Nordeste 0 -- -- 75
2020-03-28 07:00:00 10.4 5 Nordeste 13 Nordeste 0 -- -- 68
2020-03-28 06:00:00 10.4 3 Norte 20 Nordeste 0 -- -- 68
2020-03-28 05:00:00 10.4 4 Norte 12 Nordeste 0 -- -- 75
2020-03-28 04:00:00 10.2 4 Norte 20 Noroeste 0 -- -- 80
2020-03-28 03:00:00 10.3 6 Norte 16 Noroeste 0 -- -- 84
2020-03-28 02:00:00 10.9 3 Norte 22 Norte 0 -- -- 81
2020-03-28 01:00:00 11.3 4 Norte 11 Noroeste 0 -- -- 92
2020-03-28 00:00:00 11.4 8 Norte 11 Nordeste 1.8 -- -- 91
2020-03-27 23:00:00 11.7 3 Norte 13 Este 0 -- -- 89
2020-03-27 22:00:00 12 2 Noroeste 8 Oeste 0 -- -- 87
2020-03-27 21:00:00 12.2 5 Oeste 15 Oeste 0 -- -- 83
2020-03-27 20:00:00 12.6 9 Oeste 23 Sudoeste 0 -- -- 83
2020-03-27 19:00:00 14 13 Oeste 26 Oeste 0 -- -- 78
2020-03-27 18:00:00 15.7 12 Oeste 29 Oeste 0 -- -- 74
2020-03-27 17:00:00 17.5 16 Oeste 37 Oeste 0 -- -- 69
2020-03-27 16:00:00 17.7 15 Oeste 31 Sudoeste 0 -- -- 69
2020-03-27 15:00:00 16 12 Oeste 26 Oeste 0 -- -- 73
2020-03-27 14:00:00 16.6 10 Oeste 23 Oeste 0 -- -- 69
2020-03-27 13:00:00 15.9 7 Oeste 23 Oeste 0 -- -- 67
2020-03-27 12:00:00 16.2 11 Sudoeste 20 Oeste 0 -- -- 66
2020-03-27 11:00:00 14.3 4 Norte 17 Oeste 0 -- -- 72
2020-03-27 10:00:00 14.1 12 Norte 19 Noroeste 0 -- -- 75
2020-03-27 09:00:00 11.5 5 Noroeste 12 Noroeste 0 -- -- 77
2020-03-27 08:00:00 10.4 0 Calma 20 Norte 0 -- -- 76
2020-03-27 07:00:00 9.4 11 Norte 18 Noroeste 0 -- -- 83
2020-03-27 06:00:00 9.7 6 Norte 23 Norte 0 -- -- 85
2020-03-27 05:00:00 9.8 4 Norte 13 Nordeste 0 -- -- 83
2020-03-27 04:00:00 9.5 4 Norte 17 Norte 0 -- -- 82
2020-03-27 03:00:00 8.7 8 Norte 14 Norte 0 -- -- 90
2020-03-27 02:00:00 9.1 3 Norte 6 Oeste 0 -- -- 93
2020-03-27 01:00:00 9.5 0 Calma 6 Sudoeste 0 -- -- 94
2020-03-27 00:00:00 9.6 0 Calma 5 Sur 0 -- -- 94
2020-03-26 23:00:00 9.9 2 Sudoeste 5 Sudoeste 0 -- -- 94
2020-03-26 22:00:00 10.3 0 Calma 5 Sudeste 0 -- -- 95
2020-03-26 21:00:00 10.3 3 Sur 7 Norte 0 -- -- 96
2020-03-26 20:00:00 10.5 2 Noroeste 8 Sudeste 0 -- -- 96
2020-03-26 19:00:00 10.3 4 Sudeste 12 Sudeste 0 -- -- 96
2020-03-26 18:00:00 11.1 11 Sudoeste 17 Sur 0 -- -- 94
2020-03-26 17:00:00 11.5 9 Oeste 15 Oeste 0 -- -- 95
2020-03-26 16:00:00 12 7 Oeste 16 Sudoeste 0 -- -- 94
2020-03-26 15:00:00 11.8 8 Sudoeste 18 Sudoeste 0.2 -- -- 93
2020-03-26 14:00:00 11.7 7 Oeste 15 Oeste 2 -- -- 91
2020-03-26 13:00:00 12.2 10 Oeste 19 Oeste 0 -- -- 85
2020-03-26 12:00:00 13.2 9 Sudoeste 23 Oeste 0 -- -- 79
2020-03-26 11:00:00 12.9 6 Oeste 12 Oeste 0 -- -- 79
2020-03-26 10:00:00 12.1 4 Oeste 9 Sudoeste 0 -- -- 78
2020-03-26 09:00:00 10.7 4 Sudoeste 6 Sudoeste 0 -- -- 86
2020-03-26 08:00:00 9.8 0 Calma 7 Nordeste 0 -- -- 81
2020-03-26 07:00:00 9.2 6 Nordeste 10 Nordeste 0 -- -- 81
2020-03-26 06:00:00 9.6 0 Calma 6 Nordeste 0 -- -- 86
2020-03-26 05:00:00 9.9 3 Nordeste 5 Este 0 -- -- 84
2020-03-26 04:00:00 10.4 0 Calma 5 Nordeste 0 -- -- 82
2020-03-26 03:00:00 10.3 0 Calma 10 Norte 0 -- -- 84
2020-03-26 02:00:00 10.3 5 Nordeste 9 Nordeste 0 -- -- 83
2020-03-26 01:00:00 10.2 3 Este 13 Nordeste 0 -- -- 82
2020-03-26 00:00:00 10 8 Norte 13 Nordeste 0 -- -- 88
2020-03-25 23:00:00 10.7 3 Oeste 12 Oeste 0 -- -- 89
2020-03-25 22:00:00 11 7 Oeste 13 Oeste 0 -- -- 88
2020-03-25 21:00:00 11.1 5 Sudoeste 14 Sudoeste 0 -- -- 88
2020-03-25 20:00:00 11.4 4 Sur 9 Sudoeste 0 -- -- 80
2020-03-25 19:00:00 12.7 5 Oeste 17 Oeste 0 -- -- 76
2020-03-25 18:00:00 13.2 8 Oeste 17 Sudoeste 0 -- -- 74
2020-03-25 17:00:00 13.3 10 Oeste 25 Oeste 0 -- -- 74
2020-03-25 16:00:00 13.4 6 Oeste 17 Sudoeste 0 -- -- 77
2020-03-25 15:00:00 13.3 7 Oeste 13 Oeste 0 -- -- 79
2020-03-25 14:00:00 12.2 6 Sudoeste 14 Sur 0 -- -- 88
2020-03-25 13:00:00 12.2 10 Sur 21 Sur 0.4 -- -- 87
2020-03-25 12:00:00 13.8 15 Sur 27 Sur 0 -- -- 74
2020-03-25 11:00:00 14.7 5 Oeste 16 Oeste 0 -- -- 54
2020-03-25 10:00:00 13 5 Sudoeste 11 Sudoeste 0 -- -- 74
2020-03-25 09:00:00 12.2 3 Oeste 7 Oeste 0 -- -- 83
2020-03-25 08:00:00 11.3 0 Calma 5 Este 0 -- -- 84
2020-03-25 07:00:00 11 4 Nordeste 9 Nordeste 0 -- -- 87
2020-03-25 06:00:00 11.1 6 Nordeste 18 Norte 0 -- -- 67
2020-03-25 05:00:00 11.1 9 Norte 24 Norte 0 -- -- 70
2020-03-25 04:00:00 11.4 0 Calma 10 Oeste 0 -- -- 83
2020-03-25 03:00:00 11.5 5 Sudoeste 10 Este 0 -- -- 86
2020-03-25 02:00:00 11.6 4 Sudeste 12 Norte 0 -- -- 72
2020-03-25 01:00:00 11.9 12 Norte 34 Nordeste 0 -- -- 63
2020-03-25 00:00:00 11.6 5 Norte 27 Norte 0 -- -- 64
2020-03-24 23:00:00 11.4 10 Norte 30 Noroeste 0 -- -- 64
2020-03-24 22:00:00 12.3 15 Noroeste 37 Noroeste 0 -- -- 65
2020-03-24 21:00:00 12.6 13 Noroeste 31 Noroeste 0 -- -- 65
2020-03-24 20:00:00 13.2 19 Norte 35 Noroeste 0 -- -- 63
2020-03-24 19:00:00 14.7 19 Noroeste 31 Noroeste 0 -- -- 59
2020-03-24 18:00:00 16.7 14 Norte 40 Noroeste 0 -- -- 54
2020-03-24 17:00:00 19.9 18 Noroeste 39 Noroeste 0 -- -- 46
2020-03-24 16:00:00 20.5 15 Noroeste 43 Norte 0 -- -- 46
2020-03-24 15:00:00 20.8 16 Noroeste 39 Noroeste 0 -- -- 45
2020-03-24 14:00:00 19.1 17 Noroeste 35 Oeste 0 -- -- 44
2020-03-24 13:00:00 17.3 10 Oeste 35 Noroeste 0 -- -- 51
2020-03-24 12:00:00 14.7 15 Sudoeste 30 Sudoeste 0 -- -- 60
2020-03-24 11:00:00 13.7 12 Noroeste 39 Nordeste 0 -- -- 66
2020-03-24 10:00:00 13.6 8 Oeste 45 Noroeste 0 -- -- 63
2020-03-24 09:00:00 11.5 15 Norte 38 Noroeste 0 -- -- 77
2020-03-24 08:00:00 11.1 18 Noroeste 26 Noroeste 0 -- -- 77
2020-03-24 07:00:00 10.9 12 Norte 30 Noroeste 0.2 -- -- 77
2020-03-24 06:00:00 11.2 9 Noroeste 24 Nordeste 0 -- -- 74
2020-03-24 05:00:00 11.5 4 Noroeste 18 Norte 0 -- -- 75
2020-03-24 04:00:00 11.5 6 Noroeste 18 Norte 0 -- -- 75
2020-03-24 03:00:00 11.5 7 Oeste 16 Noroeste 0 -- -- 75
2020-03-24 02:00:00 11.6 3 Noroeste 23 Norte 0 -- -- 72
2020-03-24 01:00:00 11.4 9 Norte 32 Noroeste 0 -- -- 72
2020-03-24 00:00:00 11.3 3 Oeste 14 Sudoeste 0 -- -- 75
2020-03-23 23:00:00 11.3 4 Norte 26 Nordeste 0 -- -- 74
2020-03-23 22:00:00 11.3 10 Norte 35 Nordeste 0.2 -- -- 74
2020-03-23 21:00:00 11.8 3 Noroeste 24 Oeste 0 -- -- 68
2020-03-23 20:00:00 11.7 10 Norte 29 Oeste 0 -- -- 69
2020-03-23 19:00:00 12.2 10 Oeste 35 Nordeste 0 -- -- 65
2020-03-23 18:00:00 13 8 Noroeste 23 Oeste 0 -- -- 64
2020-03-23 17:00:00 13.7 13 Oeste 31 Oeste 0 -- -- 61
2020-03-23 16:00:00 13.6 9 Noroeste 27 Noroeste 0 -- -- 68
2020-03-23 15:00:00 14.5 17 Oeste 32 Oeste 0 -- -- 64
2020-03-23 14:00:00 13.8 8 Noroeste 43 Nordeste 0 -- -- 62
2020-03-23 13:00:00 13.4 10 Sudoeste 47 Noroeste 0 -- -- 67
2020-03-23 12:00:00 12.3 13 Norte 51 Noroeste 0 -- -- 73
2020-03-23 11:00:00 11.3 24 Norte 60 Noroeste 0 -- -- 75
2020-03-23 10:00:00 10.4 24 Noroeste 82 Noroeste 0 -- -- 81
2020-03-23 09:00:00 9 36 Noroeste 73 Noroeste 0.4 -- -- 78
2020-03-23 08:00:00 8.8 34 Norte 85 Noroeste 0 -- -- 78
2020-03-23 07:00:00 8.5 42 Noroeste 82 Norte 1.4 -- -- 83
2020-03-23 06:00:00 8.6 25 Noroeste 84 Norte 0.4 -- -- 81
2020-03-23 05:00:00 9.3 41 Oeste 83 Oeste 0.2 -- -- 71
2020-03-23 04:00:00 9.5 26 Noroeste 58 Norte 0 -- -- 76
2020-03-23 03:00:00 10.3 32 Noroeste 69 Noroeste 0 -- -- 66
2020-03-23 02:00:00 10.5 35 Norte 65 Norte 0 -- -- 71
2020-03-23 01:00:00 10.9 32 Noroeste 69 Norte 0 -- -- 69
2020-03-23 00:00:00 11 21 Noroeste 51 Noroeste 0 -- -- 63
2020-03-22 23:00:00 11.1 24 Norte 60 Noroeste 0 -- -- 66
2020-03-22 22:00:00 11.6 34 Norte 59 Noroeste 0 -- -- 64
2020-03-22 21:00:00 12 31 Norte 57 Noroeste 0 -- -- 58
2020-03-22 20:00:00 12.8 12 Noroeste 30 Noroeste 0 -- -- 74
2020-03-22 19:00:00 13.5 14 Noroeste 32 Noroeste 0 -- -- 69
2020-03-22 18:00:00 14.4 10 Oeste 40 Sudoeste 0 -- -- 68
2020-03-22 17:00:00 17 21 Oeste 39 Sudoeste 0 -- -- 59
2020-03-22 16:00:00 18 14 Oeste 32 Oeste 0 -- -- 59
2020-03-22 15:00:00 16.7 17 Oeste 32 Sudoeste 0 -- -- 59
2020-03-22 14:00:00 17.8 14 Oeste 30 Oeste 0 -- -- 53
2020-03-22 13:00:00 16.5 17 Sur 30 Sur 0 -- -- 56
2020-03-22 12:00:00 17.2 10 Oeste 27 Noroeste 0 -- -- 47
2020-03-22 11:00:00 15.1 13 Noroeste 31 Noroeste 0 -- -- 57
2020-03-22 10:00:00 13.7 10 Noroeste 22 Nordeste 0 -- -- 62
2020-03-22 09:00:00 11.4 9 Norte 25 Nordeste 0 -- -- 66
2020-03-22 08:00:00 10.4 10 Nordeste 26 Nordeste 0 -- -- 69
2020-03-22 07:00:00 10.3 12 Norte 28 Nordeste 0 -- -- 71
2020-03-22 06:00:00 10.4 13 Norte 24 Noroeste 0 -- -- 72
2020-03-22 05:00:00 10.4 10 Norte 29 Nordeste 0 -- -- 73
2020-03-22 04:00:00 10.4 12 Noroeste 33 Noroeste 0 -- -- 71
2020-03-22 03:00:00 10.4 21 Norte 52 Norte 0 -- -- 68
2020-03-22 02:00:00 9.9 21 Norte 35 Nordeste 0 -- -- 68
2020-03-22 01:00:00 9.8 6 Noroeste 16 Oeste 0 -- -- 77
2020-03-22 00:00:00 10.4 7 Sur 13 Noroeste 0 -- -- 83
2020-03-21 23:00:00 10.5 3 Noroeste 15 Sudoeste 0 -- -- 79
2020-03-21 22:00:00 10.6 6 Sudeste 10 Oeste 0 -- -- 82
2020-03-21 21:00:00 11.1 3 Oeste 17 Oeste 0 -- -- 68
2020-03-21 20:00:00 11.8 10 Sur 20 Sudoeste 0 -- -- 77
2020-03-21 19:00:00 13.8 8 Sudoeste 18 Oeste 0 -- -- 69
2020-03-21 18:00:00 14.5 11 Oeste 26 Oeste 0 -- -- 66
2020-03-21 17:00:00 16.1 14 Oeste 32 Oeste 0 -- -- 60
2020-03-21 16:00:00 16.8 15 Oeste 31 Oeste 0 -- -- 55
2020-03-21 15:00:00 17.2 16 Oeste 35 Oeste 0 -- -- 53
2020-03-21 14:00:00 17.7 15 Oeste 32 Oeste 0 -- -- 52
2020-03-21 13:00:00 17.1 13 Oeste 28 Oeste 0 -- -- 53
2020-03-21 12:00:00 16.8 12 Oeste 26 Oeste 0 -- -- 54
2020-03-21 11:00:00 15.7 9 Oeste 18 Oeste 0 -- -- 53
2020-03-21 10:00:00 13.8 10 Oeste 18 Oeste 0 -- -- 58
2020-03-21 09:00:00 11.5 5 Sudoeste 11 Oeste 0 -- -- 67
2020-03-21 08:00:00 10 0 Calma 8 Sur 0 -- -- 73
2020-03-21 07:00:00 9.5 3 Sur 10 Oeste 0 -- -- 73
2020-03-21 06:00:00 9.9 3 Oeste 9 Sur 0 -- -- 88
2020-03-21 05:00:00 10.1 7 Sur 9 Sur 0 -- -- 91
2020-03-21 04:00:00 10 7 Sudeste 9 Este 0 -- -- 93
2020-03-21 03:00:00 10.5 2 Oeste 9 Noroeste 0 -- -- 91
2020-03-21 02:00:00 11.1 5 Oeste 13 Sur 0 -- -- 93
2020-03-21 01:00:00 11 0 Calma 12 Nordeste 0 -- -- 90
2020-03-21 00:00:00 11.2 5 Este 10 Este 0 -- -- 90
2020-03-20 23:00:00 11.7 0 Calma 7 Sudoeste 0 -- -- 88
2020-03-20 22:00:00 12.3 2 Oeste 10 Oeste 0 -- -- 83
2020-03-20 21:00:00 12.7 5 Sudoeste 14 Sur 0 -- -- 84
2020-03-20 20:00:00 13.4 5 Sudoeste 11 Sur 0 -- -- 79
2020-03-20 19:00:00 15.4 4 Oeste 18 Oeste 0 -- -- 71
2020-03-20 18:00:00 16.5 11 Oeste 30 Oeste 0 -- -- 67
2020-03-20 17:00:00 17.1 13 Oeste 26 Oeste 0 -- -- 63
2020-03-20 16:00:00 17.5 13 Oeste 24 Sudoeste 0 -- -- 61
2020-03-20 15:00:00 16.6 11 Sudoeste 27 Sur 0 -- -- 64
2020-03-20 14:00:00 16.6 13 Sur 28 Sur 0 -- -- 63
2020-03-20 13:00:00 16.6 9 Sudoeste 22 Sur 0 -- -- 66
2020-03-20 12:00:00 16 8 Sudoeste 31 Oeste 0 -- -- 68
2020-03-20 11:00:00 17.1 11 Norte 28 Nordeste 0 -- -- 59
2020-03-20 10:00:00 15.3 15 Norte 34 Noroeste 0 -- -- 60
2020-03-20 09:00:00 12.5 6 Sudoeste 21 Oeste 0 -- -- 75
2020-03-20 08:00:00 12.7 22 Norte 46 Nordeste 0 -- -- 71
2020-03-20 07:00:00 11.5 5 Sudoeste 16 Noroeste 0 -- -- 78
2020-03-20 06:00:00 11.5 7 Noroeste 18 Noroeste 0 -- -- 78
2020-03-20 05:00:00 12.5 2 Sudoeste 30 Noroeste 0 -- -- 73
2020-03-20 04:00:00 12.8 24 Norte 40 Norte 0 -- -- 67
2020-03-20 03:00:00 12.2 3 Noroeste 13 Oeste 0 -- -- 74
2020-03-20 02:00:00 12.9 10 Sudoeste 53 Nordeste 0 -- -- 68
2020-03-20 01:00:00 13 17 Noroeste 46 Noroeste 0 -- -- 67
2020-03-20 00:00:00 13.5 23 Noroeste 45 Noroeste 0 -- -- 66
2020-03-19 23:00:00 13.8 14 Norte 57 Nordeste 0 -- -- 67
2020-03-19 22:00:00 13.9 25 Norte 47 Nordeste 0 -- -- 62
2020-03-19 21:00:00 13.9 16 Norte 33 Norte 0 -- -- 61
2020-03-19 20:00:00 14.1 13 Noroeste 28 Oeste 0 -- -- 61
2020-03-19 19:00:00 16 13 Noroeste 38 Norte 0 -- -- 56
2020-03-19 18:00:00 18 24 Noroeste 45 Noroeste 0 -- -- 50
2020-03-19 17:00:00 19.2 23 Norte 35 Noroeste 0 -- -- 46
2020-03-19 16:00:00 20.2 26 Oeste 46 Oeste 0 -- -- 44
2020-03-19 15:00:00 19.5 14 Sudoeste 34 Sur 0 -- -- 57
2020-03-19 14:00:00 19.3 23 Sur 40 Sudoeste 0 -- -- 52
2020-03-19 13:00:00 18.9 25 Norte 55 Nordeste 0 -- -- 38
2020-03-19 12:00:00 17.1 12 Oeste 45 Noroeste 0 -- -- 51
2020-03-19 11:00:00 16.2 19 Noroeste 54 Nordeste 0 -- -- 62
2020-03-19 10:00:00 16 14 Norte 41 Nordeste 0 -- -- 62
2020-03-19 09:00:00 13.6 18 Norte 40 Noroeste 0 -- -- 70
2020-03-19 08:00:00 12.8 13 Norte 34 Noroeste 0 -- -- 72
2020-03-19 07:00:00 12.1 5 Noroeste 39 Nordeste 0 -- -- 71
2020-03-19 06:00:00 12.3 13 Norte 50 Nordeste 0 -- -- 71
2020-03-19 05:00:00 11.8 23 Norte 49 Nordeste 0 -- -- 69
2020-03-19 04:00:00 11.8 23 Norte 53 Nordeste 0 -- -- 65
2020-03-19 03:00:00 11.9 28 Norte 52 Noroeste 0 -- -- 67
2020-03-19 02:00:00 12.3 23 Norte 54 Nordeste 0 -- -- 70
2020-03-19 01:00:00 11.8 19 Noroeste 45 Nordeste 0 -- -- 75
2020-03-19 00:00:00 11.5 19 Norte 38 Noroeste 0 -- -- 71
2020-03-18 23:00:00 11.2 10 Noroeste 58 Nordeste 0 -- -- 67
2020-03-18 22:00:00 11.6 19 Norte 52 Norte 0 -- -- 64
2020-03-18 21:00:00 12.3 20 Norte 41 Nordeste 0 -- -- 66
2020-03-18 20:00:00 12.4 16 Norte 42 Norte 0 -- -- 69
2020-03-18 19:00:00 13.1 13 Noroeste 57 Nordeste 0 -- -- 62
2020-03-18 18:00:00 13.6 22 Nordeste 45 Nordeste 0 -- -- 54
2020-03-18 17:00:00 14.2 9 Oeste 49 Norte 0 -- -- 57
2020-03-18 16:00:00 17.1 23 Noroeste 50 Noroeste 0 -- -- 45
2020-03-18 15:00:00 17.6 19 Noroeste 38 Noroeste 0 -- -- 44
2020-03-18 14:00:00 15.9 18 Norte 46 Noroeste 0 -- -- 48
2020-03-18 13:00:00 15.4 20 Noroeste 42 Noroeste 0 -- -- 51
2020-03-18 12:00:00 16.3 16 Noroeste 46 Noroeste 0 -- -- 50
2020-03-18 11:00:00 15.1 18 Noroeste 33 Noroeste 0 -- -- 57
2020-03-18 10:00:00 13.1 14 Noroeste 44 Nordeste 0 -- -- 56
2020-03-18 09:00:00 10.5 6 Oeste 17 Sudoeste 0 -- -- 74
2020-03-18 08:00:00 9.5 4 Sudoeste 15 Oeste 0 -- -- 83
2020-03-18 07:00:00 9.5 8 Norte 22 Nordeste 0 -- -- 78
2020-03-18 06:00:00 9.3 3 Sudoeste 20 Sur 0 -- -- 81
2020-03-18 05:00:00 9.3 11 Este 16 Este 0 -- -- 89
2020-03-18 04:00:00 9.2 4 Norte 10 Noroeste 0 -- -- 83
2020-03-18 03:00:00 9.7 0 Calma 14 Sudoeste 0 -- -- 89
2020-03-18 02:00:00 10.2 6 Oeste 17 Sudoeste 0 -- -- 83
2020-03-18 01:00:00 10.6 4 Sudoeste 14 Sur 0 -- -- 88
2020-03-18 00:00:00 10.8 5 Oeste 13 Sur 0 -- -- 89
2020-03-17 23:00:00 10.6 6 Sur 12 Sur 0 -- -- 89
2020-03-17 22:00:00 10.8 8 Sur 10 Sur 0 -- -- 85
2020-03-17 21:00:00 11.1 4 Sudoeste 10 Oeste 0 -- -- 82
2020-03-17 20:00:00 12 6 Sudoeste 17 Oeste 0 -- -- 80
2020-03-17 19:00:00 13.6 6 Oeste 16 Oeste 0 -- -- 75
2020-03-17 18:00:00 14.2 9 Sudoeste 18 Sudoeste 0 -- -- 72
2020-03-17 17:00:00 16.5 10 Sudoeste 24 Sudoeste 0 -- -- 62
2020-03-17 16:00:00 15.9 15 Sudoeste 28 Noroeste 0 -- -- 65
2020-03-17 15:00:00 15.9 10 Sudoeste 28 Oeste 0 -- -- 62
2020-03-17 14:00:00 16.1 10 Oeste 31 Oeste 0 -- -- 60
2020-03-17 13:00:00 16.7 13 Oeste 28 Oeste 0 -- -- 60
2020-03-17 12:00:00 15.4 10 Oeste 24 Oeste 0 -- -- 63
2020-03-17 11:00:00 13.4 8 Oeste 13 Sudoeste 0 -- -- 66
2020-03-17 10:00:00 12 2 Noroeste 11 Oeste 0 -- -- 71
2020-03-17 09:00:00 11 5 Oeste 12 Oeste 0 -- -- 76
2020-03-17 08:00:00 9.6 6 Oeste 11 Oeste 0 -- -- 80
2020-03-17 07:00:00 9.6 6 Sudoeste 9 Sur 0 -- -- 81
2020-03-17 06:00:00 9.7 6 Sudoeste 10 Sudoeste 0 -- -- 83
2020-03-17 05:00:00 10 3 Sudoeste 6 Sudoeste 0 -- -- 83
2020-03-17 04:00:00 10.7 4 Sudoeste 9 Oeste 0 -- -- 77
2020-03-17 03:00:00 11.3 4 Oeste 11 Oeste 0 -- -- 87
2020-03-17 02:00:00 11.3 3 Sudoeste 10 Sur 0 -- -- 88
2020-03-17 01:00:00 11.5 5 Sudoeste 15 Sudoeste 0 -- -- 86
2020-03-17 00:00:00 12 8 Oeste 13 Sudoeste 0 -- -- 85
2020-03-16 23:00:00 11.4 2 Sudoeste 10 Sur 0 -- -- 85
2020-03-16 22:00:00 12 4 Sudoeste 9 Sudoeste 0 -- -- 83
2020-03-16 21:00:00 12.4 6 Sudoeste 12 Sur 0 -- -- 84
2020-03-16 20:00:00 12.8 3 Este 16 Sur 0 -- -- 78
2020-03-16 19:00:00 15.3 7 Sudoeste 34 Sudoeste 0 -- -- 64
2020-03-16 18:00:00 18.6 14 Oeste 31 Oeste 0 -- -- 53
2020-03-16 17:00:00 19.4 13 Sudoeste 23 Sudoeste 0 -- -- 52
2020-03-16 16:00:00 19.6 12 Oeste 32 Oeste 0 -- -- 49
2020-03-16 15:00:00 19.6 18 Sudoeste 29 Oeste 0 -- -- 51
2020-03-16 14:00:00 19.7 13 Oeste 23 Noroeste 0 -- -- 53
2020-03-16 13:00:00 17.2 10 Sudoeste 21 Oeste 0 -- -- 62
2020-03-16 12:00:00 15.6 6 Sudoeste 19 Oeste 0 -- -- 69
2020-03-16 11:00:00 13.7 6 Oeste 14 Oeste 0 -- -- 74
2020-03-16 10:00:00 12.6 3 Sudoeste 10 Sur 0 -- -- 85
2020-03-16 09:00:00 11.2 4 Sudoeste 12 Sur 0 -- -- 93
2020-03-16 08:00:00 10.5 8 Sur 12 Sur 0 -- -- 91
2020-03-16 07:00:00 10.2 5 Sur 10 Sudoeste 0 -- -- 85
2020-03-16 06:00:00 10.6 8 Sudeste 12 Este 0 -- -- 83
2020-03-16 05:00:00 10.7 0 Calma 5 Nordeste 0 -- -- 82
2020-03-16 04:00:00 11.1 2 Este 10 Este 0 -- -- 83
2020-03-16 03:00:00 11.5 8 Este 9 Este 0 -- -- 82
2020-03-16 02:00:00 11.3 3 Noroeste 14 Sur 0 -- -- 84
2020-03-16 01:00:00 11.6 5 Sur 9 Sur 0 -- -- 84
2020-03-16 00:00:00 11.9 4 Sudoeste 6 Noroeste 0 -- -- 81
2020-03-15 23:00:00 12 4 Sudeste 8 Este 0 -- -- 77
2020-03-15 22:00:00 12.3 3 Sur 9 Sur 0 -- -- 78
2020-03-15 21:00:00 12.5 6 Sur 9 Sur 0 -- -- 79
2020-03-15 20:00:00 12.9 3 Nordeste 24 Noroeste 0 -- -- 71
2020-03-15 19:00:00 13.9 13 Noroeste 44 Oeste 0 -- -- 61
2020-03-15 18:00:00 16 23 Oeste 40 Oeste 0 -- -- 57
2020-03-15 17:00:00 15 10 Sudoeste 27 Sudeste 0 -- -- 69
2020-03-15 16:00:00 16 13 Sur 23 Oeste 0 -- -- 65
2020-03-15 15:00:00 18.4 13 Oeste 27 Sudoeste 0 -- -- 56
2020-03-15 14:00:00 18.7 16 Oeste 31 Oeste 0 -- -- 56
2020-03-15 13:00:00 16.5 12 Oeste 20 Sudoeste 0 -- -- 62
2020-03-15 12:00:00 15.4 8 Sudoeste 28 Oeste 0 -- -- 65
2020-03-15 11:00:00 14.2 11 Noroeste 23 Oeste 0 -- -- 60
2020-03-15 10:00:00 13.4 8 Oeste 14 Oeste 0 -- -- 68
2020-03-15 09:00:00 10.9 8 Este 12 Este 0 -- -- 80
2020-03-15 08:00:00 10 0 Calma 4 Este 0 -- -- 84
2020-03-15 07:00:00 9.6 5 Este 6 Este 0 -- -- 89
2020-03-15 06:00:00 10 2 Sur 6 Sur 0 -- -- 91
2020-03-15 05:00:00 10 4 Sur 6 Sur 0 -- -- 91
2020-03-15 04:00:00 10 0 Calma 7 Sudoeste 0 -- -- 87
2020-03-15 03:00:00 10.5 0 Calma 8 Nordeste 0 -- -- 76
2020-03-15 02:00:00 10.4 3 Nordeste 10 Nordeste 0 -- -- 82
2020-03-15 01:00:00 11.1 2 Norte 10 Sudoeste 0 -- -- 89
2020-03-15 00:00:00 11.2 6 Sudoeste 8 Oeste 0 -- -- 91
2020-03-14 23:00:00 11.1 5 Sur 8 Sur 0 -- -- 90
2020-03-14 22:00:00 11.5 0 Calma 5 Oeste 0 -- -- 87
2020-03-14 21:00:00 12.2 3 Sudoeste 6 Sur 0 -- -- 85
2020-03-14 20:00:00 13.2 3 Sudoeste 14 Oeste 0 -- -- 82
2020-03-14 19:00:00 14.4 10 Sudoeste 21 Oeste 0 -- -- 75
2020-03-14 18:00:00 17.1 13 Oeste 24 Oeste 0 -- -- 66
2020-03-14 17:00:00 17.7 12 Oeste 27 Sudoeste 0 -- -- 64
2020-03-14 16:00:00 17.1 12 Oeste 24 Oeste 0 -- -- 67
2020-03-14 15:00:00 17.6 11 Oeste 21 Oeste 0 -- -- 66
2020-03-14 14:00:00 16.9 10 Oeste 21 Oeste 0 -- -- 70
2020-03-14 13:00:00 16.3 9 Oeste 22 Oeste 0 -- -- 73
2020-03-14 12:00:00 17.4 8 Oeste 17 Oeste 0 -- -- 68
2020-03-14 11:00:00 15.6 6 Oeste 19 Sudoeste 0 -- -- 75
2020-03-14 10:00:00 14 4 Sudoeste 8 Sudoeste 0 -- -- 80
2020-03-14 09:00:00 12.1 6 Sur 9 Sur 0 -- -- 86
2020-03-14 08:00:00 13.2 0 Calma 3 Sur 0 -- -- 60
2020-03-14 07:00:00 12.9 0 Calma 14 Este 0 -- -- 62
2020-03-14 06:00:00 11 3 Nordeste 5 Norte 0 -- -- 86
2020-03-14 05:00:00 12.6 0 Calma 11 Sudeste 0 -- -- 80
2020-03-14 04:00:00 14.1 2 Sudoeste 4 Oeste 0 -- -- 61
2020-03-14 03:00:00 13.2 0 Calma 5 Sur 0 -- -- 62
2020-03-14 02:00:00 14 0 Calma 5 Nordeste 0 -- -- 66
2020-03-14 01:00:00 15 4 Nordeste 5 Sudoeste 0 -- -- 64
2020-03-14 00:00:00 16.4 3 Nordeste 5 Sudoeste 0 -- -- 50
2020-03-13 23:00:00 17.3 3 Sur 6 Nordeste 0 -- -- 40
2020-03-13 22:00:00 18.5 4 Norte 8 Norte 0 -- -- 28
2020-03-13 21:00:00 18.9 3 Nordeste 9 Norte 0 -- -- 26
2020-03-13 20:00:00 18.9 4 Norte 9 Norte 0 -- -- 32
2020-03-13 19:00:00 19.7 0 Calma 6 Sudoeste 0 -- -- 62
2020-03-13 18:00:00 21 3 Oeste 9 Oeste 0 -- -- 60
2020-03-13 17:00:00 21.3 5 Oeste 15 Sudoeste 0 -- -- 57
2020-03-13 16:00:00 22.3 7 Oeste 17 Sudoeste 0 -- -- 54
2020-03-13 15:00:00 22.4 6 Oeste 18 Sudoeste 0 -- -- 55
2020-03-13 14:00:00 22.3 11 Sudoeste 20 Sudoeste 0 -- -- 54
2020-03-13 13:00:00 23 12 Sur 21 Sudoeste 0 -- -- 46
2020-03-13 12:00:00 23.1 8 Sudoeste 16 Sur 0 -- -- 47
2020-03-13 11:00:00 22.8 6 Sudoeste 13 Sudoeste 0 -- -- 41
2020-03-13 10:00:00 22.1 0 Calma 9 Sur 0 -- -- 21
2020-03-13 09:00:00 20.2 4 Sur 9 Sur 0 -- -- 21
2020-03-13 08:00:00 20.1 0 Calma 7 Nordeste 0 -- -- 21
2020-03-13 07:00:00 19.6 3 Nordeste 6 Este 0 -- -- 22
2020-03-13 06:00:00 19.6 3 Sur 5 Sudeste 0 -- -- 22
2020-03-13 05:00:00 20.4 0 Calma 2 Este 0 -- -- 22
2020-03-13 04:00:00 20.2 2 Nordeste 4 Nordeste 0 -- -- 22
2020-03-13 03:00:00 20.1 3 Nordeste 6 Norte 0 -- -- 20
2020-03-13 02:00:00 20.8 2 Sudeste 5 Este 0 -- -- 20
2020-03-13 01:00:00 20.8 3 Sur 4 Sur 0 -- -- 20
2020-03-13 00:00:00 21 2 Sur 7 Norte 0 -- -- 20
2020-03-12 23:00:00 20.5 5 Nordeste 10 Nordeste 0 -- -- 20
2020-03-12 22:00:00 21 10 Nordeste 12 Nordeste 0 -- -- 21
2020-03-12 21:00:00 20.8 3 Nordeste 8 Nordeste 0 -- -- 27
2020-03-12 20:00:00 21.7 2 Norte 7 Oeste 0 -- -- 36
2020-03-12 19:00:00 23.8 0 Calma 16 Sudoeste 0 -- -- 33
2020-03-12 18:00:00 24.9 10 Sudoeste 18 Sudoeste 0 -- -- 27
2020-03-12 17:00:00 26.9 10 Sudoeste 21 Sudoeste 0 -- -- 29
2020-03-12 16:00:00 27.4 11 Oeste 29 Sudoeste 0 -- -- 25
2020-03-12 15:00:00 27.1 17 Sudoeste 28 Sudoeste 0 -- -- 21
2020-03-12 14:00:00 26.7 16 Sur 31 Sudoeste 0 -- -- 19
2020-03-12 13:00:00 25.6 21 Sur 35 Sur 0 -- -- 18
2020-03-12 12:00:00 25.8 12 Sur 31 Sur 0 -- -- 16
2020-03-12 11:00:00 24.6 9 Este 27 Este 0 -- -- 15
2020-03-12 10:00:00 23.5 11 Este 26 Nordeste 0 -- -- 14
2020-03-12 09:00:00 21.2 14 Nordeste 38 Nordeste 0 -- -- 15
2020-03-12 08:00:00 20.7 23 Nordeste 34 Nordeste 0 -- -- 13
2020-03-12 07:00:00 20.6 20 Nordeste 40 Nordeste 0 -- -- 13
2020-03-12 06:00:00 20.3 30 Nordeste 41 Nordeste 0 -- -- 12
2020-03-12 05:00:00 19.9 21 Nordeste 30 Nordeste 0 -- -- 14
2020-03-12 04:00:00 20.8 17 Nordeste 22 Este 0 -- -- 14
2020-03-12 03:00:00 20.7 17 Nordeste 20 Nordeste 0 -- -- 14
2020-03-12 02:00:00 20.8 14 Nordeste 17 Nordeste 0 -- -- 14
2020-03-12 01:00:00 20.5 10 Nordeste 12 Nordeste 0 -- -- 14
2020-03-12 00:00:00 21 7 Este 14 Nordeste 0 -- -- 14
2020-03-11 23:00:00 21.1 12 Nordeste 18 Nordeste 0 -- -- 14
2020-03-11 22:00:00 20.8 15 Nordeste 18 Nordeste 0 -- -- 14
2020-03-11 21:00:00 21.2 10 Nordeste 13 Nordeste 0 -- -- 17
2020-03-11 20:00:00 22.3 2 Este 7 Nordeste 0 -- -- 17
2020-03-11 19:00:00 24.2 3 Noroeste 14 Sudoeste 0 -- -- 14
2020-03-11 18:00:00 26.1 7 Sudoeste 28 Sudeste 0 -- -- 19
2020-03-11 17:00:00 25.4 10 Sudoeste 24 Sudoeste 0 -- -- 14
2020-03-11 16:00:00 26.5 12 Sudoeste 27 Sur 0 -- -- 13
2020-03-11 15:00:00 27.2 17 Sudoeste 31 Sur 0 -- -- 23
2020-03-11 14:00:00 26.3 12 Sudoeste 23 Sur 0 -- -- 18
2020-03-11 13:00:00 25.7 10 Sudoeste 17 Sudoeste 0 -- -- 23
2020-03-11 12:00:00 24.6 5 Nordeste 18 Sur 0 -- -- 22
2020-03-11 11:00:00 24.3 6 Este 19 Sudeste 0 -- -- 15
2020-03-11 10:00:00 22.9 4 Este 17 Nordeste 0 -- -- 17
2020-03-11 09:00:00 20.8 8 Nordeste 18 Nordeste 0 -- -- 17
2020-03-11 08:00:00 20.1 7 Nordeste 16 Nordeste 0 -- -- 15
2020-03-11 07:00:00 19.7 10 Nordeste 15 Nordeste 0 -- -- 14
2020-03-11 06:00:00 20.1 3 Este 8 Nordeste 0 -- -- 13
2020-03-11 05:00:00 19.5 6 Nordeste 14 Nordeste 0 -- -- 13
2020-03-11 04:00:00 19.5 9 Nordeste 14 Nordeste 0 -- -- 13
2020-03-11 03:00:00 19.8 13 Nordeste 17 Nordeste 0 -- -- 13
2020-03-11 02:00:00 19.8 12 Nordeste 17 Nordeste 0 -- -- 12
2020-03-11 01:00:00 20.1 12 Nordeste 18 Nordeste 0 -- -- 11
2020-03-11 00:00:00 19.8 15 Nordeste 17 Nordeste 0 -- -- 12
2020-03-10 23:00:00 18.6 12 Nordeste 16 Nordeste 0 -- -- 27
2020-03-10 22:00:00 19.1 3 Este 8 Nordeste 0 -- -- 33
2020-03-10 21:00:00 19.2 5 Nordeste 8 Nordeste 0 -- -- 29
2020-03-10 20:00:00 19.6 0 Calma 4 Nordeste 0 -- -- 27
2020-03-10 19:00:00 20.3 2 Oeste 14 Oeste 0 -- -- 24
2020-03-10 18:00:00 23 8 Oeste 23 Oeste 0 -- -- 22
2020-03-10 17:00:00 25.1 10 Oeste 22 Sudoeste 0 -- -- 32
2020-03-10 16:00:00 24.5 14 Sudoeste 26 Sudoeste 0 -- -- 25
2020-03-10 15:00:00 25.4 14 Sudoeste 26 Sudoeste 0 -- -- 25
2020-03-10 14:00:00 24.7 12 Sudoeste 24 Sur 0 -- -- 17
2020-03-10 13:00:00 23.4 10 Sudoeste 23 Sur 0 -- -- 35
2020-03-10 12:00:00 23.3 5 Oeste 13 Oeste 0 -- -- 45
2020-03-10 11:00:00 23.6 4 Noroeste 12 Este 0 -- -- 27
2020-03-10 10:00:00 23.2 4 Este 17 Nordeste 0 -- -- 18
2020-03-10 09:00:00 20.7 12 Nordeste 19 Nordeste 0 -- -- 19
2020-03-10 08:00:00 19.8 12 Nordeste 22 Nordeste 0 -- -- 18
2020-03-10 07:00:00 19.3 12 Nordeste 22 Nordeste 0 -- -- 18
2020-03-10 06:00:00 19.5 0 Calma 20 Nordeste 0 -- -- 18
2020-03-10 05:00:00 19.8 15 Nordeste 26 Nordeste 0 -- -- 18
2020-03-10 04:00:00 19.9 17 Nordeste 28 Nordeste 0 -- -- 19
2020-03-10 03:00:00 19.9 12 Nordeste 25 Nordeste 0 -- -- 19
2020-03-10 02:00:00 20.1 17 Norte 28 Nordeste 0 -- -- 19
2020-03-10 01:00:00 20.1 15 Norte 30 Noroeste 0 -- -- 19
2020-03-10 00:00:00 20.2 20 Norte 34 Nordeste 0 -- -- 19
2020-03-09 23:00:00 20.2 23 Norte 40 Nordeste 0 -- -- 20
2020-03-09 22:00:00 20 14 Norte 31 Nordeste 0 -- -- 20
2020-03-09 21:00:00 20.1 17 Norte 30 Nordeste 0 -- -- 21
2020-03-09 20:00:00 20.2 13 Norte 23 Norte 0 -- -- 22
2020-03-09 19:00:00 21.9 9 Norte 29 Norte 0 -- -- 20
2020-03-09 18:00:00 23.6 18 Norte 33 Norte 0 -- -- 17
2020-03-09 17:00:00 24.5 19 Nordeste 40 Nordeste 0 -- -- 17
2020-03-09 16:00:00 24.9 17 Nordeste 35 Norte 0 -- -- 17
2020-03-09 15:00:00 25.7 13 Nordeste 31 Norte 0 -- -- 16
2020-03-09 14:00:00 25.5 13 Oeste 35 Oeste 0 -- -- 17
2020-03-09 13:00:00 24.8 10 Norte 27 Sudeste 0 -- -- 18
2020-03-09 12:00:00 23.4 9 Nordeste 32 Nordeste 0 -- -- 19
2020-03-09 11:00:00 22.5 12 Nordeste 37 Nordeste 0 -- -- 19
2020-03-09 10:00:00 21.1 19 Nordeste 33 Nordeste 0 -- -- 20
2020-03-09 09:00:00 19 12 Norte 31 Nordeste 0 -- -- 22
2020-03-09 08:00:00 18.3 12 Norte 28 Nordeste 0 -- -- 23
2020-03-09 07:00:00 18.4 13 Nordeste 34 Nordeste 0 -- -- 23
2020-03-09 06:00:00 18.9 18 Norte 36 Norte 0 -- -- 23
2020-03-09 05:00:00 19.4 19 Norte 42 Nordeste 0 -- -- 22
2020-03-09 04:00:00 20.2 21 Norte 42 Nordeste 0 -- -- 20
2020-03-09 03:00:00 20.8 21 Nordeste 40 Nordeste 0 -- -- 19
2020-03-09 02:00:00 21.1 21 Norte 31 Nordeste 0 -- -- 17
2020-03-09 01:00:00 21.3 18 Norte 36 Nordeste 0 -- -- 17
2020-03-09 00:00:00 21.5 16 Norte 29 Nordeste 0 -- -- 16
2020-03-08 23:00:00 21.5 14 Norte 30 Norte 0 -- -- 17
2020-03-08 22:00:00 21.5 16 Nordeste 26 Nordeste 0 -- -- 16
2020-03-08 21:00:00 21.7 14 Nordeste 32 Nordeste 0 -- -- 16
2020-03-08 20:00:00 21.9 14 Norte 28 Nordeste 0 -- -- 16
2020-03-08 19:00:00 22.7 13 Norte 28 Norte 0 -- -- 15
2020-03-08 18:00:00 24.7 15 Norte 32 Nordeste 0 -- -- 12
2020-03-08 17:00:00 25.6 20 Norte 34 Norte 0 -- -- 13
2020-03-08 16:00:00 26.9 7 Nordeste 31 Este 0 -- -- 12
2020-03-08 15:00:00 25.7 14 Nordeste 44 Este 0 -- -- 12
2020-03-08 14:00:00 24.8 18 Este 37 Este 0 -- -- 12
2020-03-08 13:00:00 25.1 14 Nordeste 44 Nordeste 0 -- -- 13
2020-03-08 12:00:00 24.5 19 Norte 51 Nordeste 0 -- -- 15
2020-03-08 11:00:00 23.1 24 Nordeste 46 Nordeste 0 -- -- 18
2020-03-08 10:00:00 22.5 21 Nordeste 41 Nordeste 0 -- -- 16
2020-03-08 09:00:00 21.5 24 Nordeste 43 Nordeste 0 -- -- 17
2020-03-08 08:00:00 21.1 23 Norte 49 Nordeste 0 -- -- 17
2020-03-08 07:00:00 21.2 23 Norte 39 Nordeste 0 -- -- 16
2020-03-08 06:00:00 21.4 22 Norte 41 Nordeste 0 -- -- 15
2020-03-08 05:00:00 21.5 17 Norte 37 Nordeste 0 -- -- 15
2020-03-08 04:00:00 21.1 19 Norte 33 Nordeste 0 -- -- 17
2020-03-08 03:00:00 20.9 15 Nordeste 30 Nordeste 0 -- -- 19
2020-03-08 02:00:00 21.3 13 Nordeste 29 Nordeste 0 -- -- 16
2020-03-08 01:00:00 21 15 Nordeste 31 Este 0 -- -- 17
2020-03-08 00:00:00 20.9 15 Nordeste 23 Nordeste 0 -- -- 18
2020-03-07 23:00:00 20 3 Sudeste 5 Sudeste 0 -- -- 31
2020-03-07 22:00:00 20 0 Calma 4 Norte 0 -- -- 31
2020-03-07 21:00:00 19.9 2 Nordeste 9 Sudoeste 0 -- -- 36
2020-03-07 20:00:00 19.5 3 Oeste 9 Nordeste 0 -- -- 47
2020-03-07 19:00:00 20.5 4 Nordeste 8 Este 0 -- -- 50
2020-03-07 18:00:00 21.8 4 Oeste 11 Oeste 0 -- -- 50
2020-03-07 17:00:00 22.1 6 Oeste 15 Oeste 0 -- -- 50
2020-03-07 16:00:00 22.5 8 Oeste 18 Oeste 0 -- -- 48
2020-03-07 15:00:00 22.2 8 Oeste 19 Oeste 0 -- -- 48
2020-03-07 14:00:00 21.3 9 Oeste 16 Sur 0 -- -- 53
2020-03-07 13:00:00 20.2 9 Oeste 17 Oeste 0 -- -- 57
2020-03-07 12:00:00 18.5 7 Sudoeste 21 Sudoeste 0 -- -- 60
2020-03-07 11:00:00 17.9 3 Sudoeste 10 Sur 0 -- -- 53
2020-03-07 10:00:00 14.7 4 Norte 6 Norte 0 -- -- 44
2020-03-07 09:00:00 11 2 Sur 10 Este 0 -- -- 63
2020-03-07 08:00:00 10.8 5 Este 13 Este 0 -- -- 68
2020-03-07 07:00:00 10.9 2 Sudeste 10 Sudoeste 0 -- -- 72
2020-03-07 06:00:00 10.6 0 Calma 7 Nordeste 0 -- -- 75
2020-03-07 05:00:00 9.9 3 Norte 10 Este 0 -- -- 91
2020-03-07 04:00:00 10.2 7 Sudeste 11 Este 0 -- -- 92
2020-03-07 03:00:00 10.6 5 Oeste 7 Sudoeste 0 -- -- 90
2020-03-07 02:00:00 11.4 2 Nordeste 12 Sudeste 0 -- -- 78
2020-03-07 01:00:00 12.8 8 Sudeste 11 Sudeste 0 -- -- 60
2020-03-07 00:00:00 13.3 0 Calma 9 Este 0 -- -- 58
2020-03-06 23:00:00 11.9 2 Nordeste 8 Nordeste 0 -- -- 89
2020-03-06 22:00:00 12.3 2 Norte 9 Nordeste 0 -- -- 86
2020-03-06 21:00:00 13 4 Norte 9 Norte 0 -- -- 81
2020-03-06 20:00:00 14.2 2 Oeste 9 Oeste 0 -- -- 76
2020-03-06 19:00:00 16.5 5 Oeste 17 Oeste 0 -- -- 68
2020-03-06 18:00:00 18.6 8 Oeste 20 Oeste 0 -- -- 63
2020-03-06 17:00:00 19.6 9 Oeste 20 Oeste 0 -- -- 60
2020-03-06 16:00:00 20.3 9 Oeste 20 Oeste 0 -- -- 60
2020-03-06 15:00:00 20 10 Oeste 22 Oeste 0 -- -- 63
2020-03-06 14:00:00 20 10 Oeste 19 Sudoeste 0 -- -- 64
2020-03-06 13:00:00 19.8 8 Oeste 16 Oeste 0 -- -- 67
2020-03-06 12:00:00 18.3 7 Oeste 13 Sudoeste 0 -- -- 72
2020-03-06 11:00:00 16.7 4 Oeste 8 Noroeste 0 -- -- 76
2020-03-06 10:00:00 14.2 2 Oeste 6 Oeste 0 -- -- 87
2020-03-06 09:00:00 12.1 0 Calma 9 Este 0 -- -- 88
2020-03-06 08:00:00 11.8 0 Calma 8 Este 0 -- -- 86
2020-03-06 07:00:00 12.1 0 Calma 4 Sudeste 0 -- -- 81
2020-03-06 06:00:00 12.6 0 Calma 5 Nordeste 0 -- -- 83
2020-03-06 05:00:00 12.4 3 Norte 6 Sudeste 0 -- -- 87
2020-03-06 04:00:00 13.2 7 Sudeste 10 Sudeste 0 -- -- 82
2020-03-06 03:00:00 12.9 4 Este 8 Este 0 -- -- 85
2020-03-06 02:00:00 13.1 4 Nordeste 16 Este 0 -- -- 88
2020-03-06 01:00:00 14.9 5 Este 10 Este 0 -- -- 73
2020-03-06 00:00:00 14.4 3 Nordeste 4 Nordeste 0 -- -- 84
2020-03-05 23:00:00 16.1 0 Calma 5 Sur 0 -- -- 67
2020-03-05 22:00:00 17.9 0 Calma 4 Noroeste 0 -- -- 56
2020-03-05 21:00:00 18.4 3 Oeste 5 Oeste 0 -- -- 53
2020-03-05 20:00:00 18.8 0 Calma 4 Noroeste 0 -- -- 67
2020-03-05 19:00:00 19.9 2 Oeste 13 Oeste 0 -- -- 65
2020-03-05 18:00:00 22.1 6 Oeste 17 Oeste 0 -- -- 59
2020-03-05 17:00:00 22.8 8 Oeste 16 Oeste 0 -- -- 59
2020-03-05 16:00:00 23.3 6 Oeste 18 Sudoeste 0 -- -- 57
2020-03-05 15:00:00 23.3 6 Oeste 19 Sudoeste 0 -- -- 58
2020-03-05 14:00:00 23.3 8 Sudoeste 22 Sudoeste 0 -- -- 57
2020-03-05 13:00:00 23 5 Oeste 12 Sudoeste 0 -- -- 59
2020-03-05 12:00:00 22.6 5 Norte 12 Sur 0 -- -- 58
2020-03-05 11:00:00 21.2 4 Sudoeste 10 Sur 0 -- -- 56
2020-03-05 10:00:00 19.9 2 Noroeste 7 Norte 0 -- -- 36
2020-03-05 09:00:00 18.5 3 Norte 6 Nordeste 0 -- -- 35
2020-03-05 08:00:00 18.5 3 Sudeste 13 Este 0 -- -- 35
2020-03-05 07:00:00 19 11 Este 17 Este 0 -- -- 35
2020-03-05 06:00:00 19 3 Nordeste 6 Nordeste 0 -- -- 35
2020-03-05 05:00:00 19.3 2 Oeste 15 Este 0 -- -- 33
2020-03-05 04:00:00 18.7 6 Nordeste 11 Nordeste 0 -- -- 39
2020-03-05 03:00:00 20.3 4 Sur 8 Sudoeste 0 -- -- 36
2020-03-05 02:00:00 20.6 3 Nordeste 8 Este 0 -- -- 30
2020-03-05 01:00:00 21 4 Sudeste 12 Nordeste 0 -- -- 28
2020-03-05 00:00:00 20.7 4 Nordeste 10 Este 0 -- -- 44
2020-03-04 23:00:00 21.1 6 Este 10 Este 0 -- -- 38
2020-03-04 22:00:00 21.1 9 Este 10 Nordeste 0 -- -- 44
2020-03-04 21:00:00 21.6 3 Sur 6 Sur 0 -- -- 44
2020-03-04 20:00:00 22.5 2 Este 6 Este 0 -- -- 45
2020-03-04 19:00:00 24.2 0 Calma 10 Oeste 0 -- -- 48
2020-03-04 18:00:00 25.9 6 Oeste 15 Noroeste 0 -- -- 45
2020-03-04 17:00:00 25.9 6 Oeste 15 Oeste 0 -- -- 46
2020-03-04 16:00:00 26.9 9 Oeste 17 Oeste 0 -- -- 44
2020-03-04 15:00:00 26.7 6 Oeste 14 Sur 0 -- -- 43
2020-03-04 14:00:00 25.5 5 Noroeste 23 Sudoeste 0 -- -- 45
2020-03-04 13:00:00 25.6 5 Oeste 9 Oeste 0 -- -- 45
2020-03-04 12:00:00 24.1 4 Oeste 12 Noroeste 0 -- -- 43
2020-03-04 11:00:00 23.7 5 Sudoeste 11 Sudoeste 0 -- -- 36
2020-03-04 10:00:00 22.5 0 Calma 5 Sur 0 -- -- 30
2020-03-04 09:00:00 20.2 3 Norte 6 Sur 0 -- -- 30
2020-03-04 08:00:00 20.6 2 Sudeste 7 Sudeste 0 -- -- 28
2020-03-04 07:00:00 22.3 0 Calma 11 Nordeste 0 -- -- 25
2020-03-04 06:00:00 21.9 9 Nordeste 14 Nordeste 0 -- -- 26
2020-03-04 05:00:00 21.6 3 Nordeste 6 Nordeste 0 -- -- 27
2020-03-04 04:00:00 20.7 3 Nordeste 5 Nordeste 0 -- -- 29
2020-03-04 03:00:00 20.2 2 Norte 6 Norte 0 -- -- 34
2020-03-04 02:00:00 20.8 4 Nordeste 12 Nordeste 0 -- -- 31
2020-03-04 01:00:00 20.6 3 Nordeste 10 Nordeste 0 -- -- 31
2020-03-04 00:00:00 20.5 5 Nordeste 13 Nordeste 0 -- -- 32
2020-03-03 23:00:00 20.4 5 Nordeste 9 Norte 0 -- -- 34
2020-03-03 22:00:00 20.4 0 Calma 8 Nordeste 0 -- -- 47
2020-03-03 21:00:00 21.5 2 Nordeste 7 Nordeste 0 -- -- 39
2020-03-03 20:00:00 21.5 0 Calma 5 Oeste 0 -- -- 42
2020-03-03 19:00:00 22.4 2 Norte 8 Noroeste 0 -- -- 58
2020-03-03 18:00:00 22.5 3 Norte 13 Oeste 0 -- -- 61
2020-03-03 17:00:00 23.3 5 Noroeste 14 Noroeste 0 -- -- 58
2020-03-03 16:00:00 23.3 6 Oeste 16 Oeste 0 -- -- 57
2020-03-03 15:00:00 22.9 8 Oeste 17 Oeste 0 -- -- 58
2020-03-03 14:00:00 23.3 6 Oeste 13 Oeste 0 -- -- 57
2020-03-03 13:00:00 22.2 5 Oeste 14 Sur 0 -- -- 60
2020-03-03 12:00:00 21.3 4 Noroeste 8 Norte 0 -- -- 60
2020-03-03 11:00:00 20.1 3 Noroeste 11 Sur 0 -- -- 60
2020-03-03 10:00:00 19.3 0 Calma 8 Sudeste 0 -- -- 40
2020-03-03 09:00:00 18.5 2 Norte 5 Nordeste 0 -- -- 29
2020-03-03 08:00:00 17.9 3 Sudeste 6 Sur 0 -- -- 35
2020-03-03 07:00:00 18.3 2 Sur 5 Sudeste 0 -- -- 36
2020-03-03 06:00:00 19 3 Este 6 Sudeste 0 -- -- 29
2020-03-03 05:00:00 15.7 3 Norte 5 Norte 0 -- -- 49
2020-03-03 04:00:00 16.6 3 Nordeste 13 Nordeste 0 -- -- 53
2020-03-03 03:00:00 16.2 4 Nordeste 9 Nordeste 0 -- -- 42
2020-03-03 02:00:00 16.3 3 Este 9 Sur 0 -- -- 61
2020-03-03 01:00:00 14.3 4 Nordeste 5 Nordeste 0 -- -- 79
2020-03-03 00:00:00 15.1 0 Calma 6 Este 0 -- -- 77
2020-03-02 23:00:00 15.9 0 Calma 6 Nordeste 0 -- -- 74
2020-03-02 22:00:00 14 4 Nordeste 6 Nordeste 0 -- -- 90
2020-03-02 21:00:00 14.2 3 Norte 6 Nordeste 0 -- -- 87
2020-03-02 20:00:00 14.9 2 Noroeste 8 Oeste 0 -- -- 84
2020-03-02 19:00:00 17 3 Noroeste 21 Sudoeste 0 -- -- 76
2020-03-02 18:00:00 18.8 11 Oeste 22 Oeste 0 -- -- 70
2020-03-02 17:00:00 20.9 13 Oeste 23 Oeste 0 -- -- 63
2020-03-02 16:00:00 21.2 10 Oeste 22 Sudoeste 0 -- -- 62
2020-03-02 15:00:00 22 10 Oeste 20 Oeste 0 -- -- 59
2020-03-02 14:00:00 20.2 9 Oeste 20 Oeste 0 -- -- 62
2020-03-02 13:00:00 19.7 9 Oeste 18 Oeste 0 -- -- 63
2020-03-02 12:00:00 18.7 8 Oeste 16 Oeste 0 -- -- 65
2020-03-02 11:00:00 17 4 Noroeste 8 Noroeste 0 -- -- 68
2020-03-02 10:00:00 14.5 4 Norte 20 Este 0 -- -- 77
2020-03-02 09:00:00 14.4 2 Sudeste 11 Este 0 -- -- 60
2020-03-02 08:00:00 13.5 7 Este 13 Este 0 -- -- 61
2020-03-02 07:00:00 11.1 0 Calma 8 Nordeste 0 -- -- 90
2020-03-02 06:00:00 11.7 4 Sudoeste 8 Sudoeste 0 -- -- 88
2020-03-02 05:00:00 11.9 2 Sur 6 Sudeste 0 -- -- 79
2020-03-02 04:00:00 12 2 Nordeste 9 Nordeste 0 -- -- 85
2020-03-02 03:00:00 13.4 6 Nordeste 17 Este 0 -- -- 72
2020-03-02 02:00:00 12.9 7 Este 15 Nordeste 0 -- -- 77
2020-03-02 01:00:00 12.5 4 Norte 6 Oeste 0 -- -- 91
2020-03-02 00:00:00 13 0 Calma 12 Este 0 -- -- 87
2020-03-01 23:00:00 14.3 2 Sudeste 12 Este 0 -- -- 80
2020-03-01 22:00:00 13.5 3 Este 14 Este 0 -- -- 87
2020-03-01 21:00:00 14.1 3 Nordeste 10 Nordeste 0 -- -- 84
2020-03-01 20:00:00 14.8 0 Calma 5 Noroeste 0 -- -- 81
2020-03-01 19:00:00 16.7 2 Norte 12 Oeste 0 -- -- 73
2020-03-01 18:00:00 18.9 8 Oeste 17 Sudoeste 0 -- -- 68
2020-03-01 17:00:00 17.9 12 Este 22 Sur 0 -- -- 69
2020-03-01 16:00:00 21.4 12 Sudoeste 22 Sudoeste 0 -- -- 58
2020-03-01 15:00:00 22.6 9 Oeste 18 Noroeste 0 -- -- 56
2020-03-01 14:00:00 22.7 10 Oeste 18 Oeste 0 -- -- 55
2020-03-01 13:00:00 22.1 8 Oeste 13 Oeste 0 -- -- 56
2020-03-01 12:00:00 21.6 7 Oeste 15 Sudoeste 0 -- -- 52
2020-03-01 11:00:00 21.3 6 Sudoeste 12 Sur 0 -- -- 41
2020-03-01 10:00:00 19.3 2 Oeste 6 Sur 0 -- -- 34
2020-03-01 09:00:00 17.8 0 Calma 8 Sudeste 0 -- -- 30
2020-03-01 08:00:00 17.1 2 Sur 8 Sur 0 -- -- 37
2020-03-01 07:00:00 17.4 0 Calma 6 Nordeste 0 -- -- 31
2020-03-01 06:00:00 17.6 3 Norte 11 Sur 0 -- -- 29
2020-03-01 05:00:00 18 6 Sudeste 18 Este 0 -- -- 35
2020-03-01 04:00:00 17 7 Sur 13 Sudeste 0 -- -- 37
2020-03-01 03:00:00 17.6 8 Sudeste 9 Sur 0 -- -- 36
2020-03-01 02:00:00 18 6 Sudeste 13 Sudoeste 0 -- -- 36
2020-03-01 01:00:00 18.3 5 Sur 15 Nordeste 0 -- -- 36
2020-03-01 00:00:00 18.3 8 Nordeste 15 Nordeste 0 -- -- 34
2020-02-29 23:00:00 18.9 9 Nordeste 14 Nordeste 0 -- -- 35
2020-02-29 22:00:00 18.9 6 Nordeste 10 Nordeste 0 -- -- 33
2020-02-29 21:00:00 18.7 0 Calma 5 Noroeste 0 -- -- 27
2020-02-29 20:00:00 18.3 4 Noroeste 5 Nordeste 0 -- -- 42
2020-02-29 19:00:00 18.7 3 Nordeste 10 Noroeste 0 -- -- 66
2020-02-29 18:00:00 19.9 3 Oeste 11 Oeste 0 -- -- 64
2020-02-29 17:00:00 21.1 5 Oeste 17 Sudoeste 0 -- -- 60
2020-02-29 16:00:00 21.9 6 Oeste 13 Oeste 0 -- -- 58
2020-02-29 15:00:00 22 7 Oeste 13 Oeste 0 -- -- 57
2020-02-29 14:00:00 20.3 5 Oeste 10 Sudoeste 0 -- -- 64
2020-02-29 13:00:00 21.1 6 Oeste 12 Oeste 0 -- -- 60
2020-02-29 12:00:00 20.8 5 Sudoeste 13 Sudoeste 0 -- -- 56
2020-02-29 11:00:00 20.8 3 Oeste 9 Sudoeste 0 -- -- 45
2020-02-29 10:00:00 19.9 0 Calma 3 Oeste 0 -- -- 21
2020-02-29 09:00:00 18.4 0 Calma 6 Nordeste 0 -- -- 22
2020-02-29 08:00:00 17.9 4 Nordeste 10 Este 0 -- -- 20
2020-02-29 07:00:00 17.4 8 Nordeste 10 Nordeste 0 -- -- 22
2020-02-29 06:00:00 17.6 4 Este 9 Este 0 -- -- 23
2020-02-29 05:00:00 17.4 3 Nordeste 6 Este 0 -- -- 22
2020-02-29 04:00:00 18.4 2 Sur 4 Sudoeste 0 -- -- 22
2020-02-29 03:00:00 17.7 4 Norte 6 Nordeste 0 -- -- 24
2020-02-29 02:00:00 18.4 0 Calma 10 Este 0 -- -- 22
2020-02-29 01:00:00 17.9 0 Calma 10 Noroeste 0 -- -- 23
2020-02-29 00:00:00 17.6 6 Norte 18 Noroeste 0 -- -- 18